Regional Weather Roundup
Issued by NWS

Home | Current Version | Previous Version | Text Only | Print | Product List | Glossary On
Versions: 1 2 3 4 5 6 7 8 9 10 11 12 13 14 15 16 17 18 19 20 21 22 23 24 25 26 27 28 29 30 31 32 33 34 35 36 37 38 39 40 41 42 43 44 45 46 47 48 49 50
000
ASUS43 KMPX 230110
RWRMN
WEATHER ROUNDUP FOR MINNESOTA
NATIONAL WEATHER SERVICE TWIN CITIES/CHANHASSEN MN
800 PM CDT SAT JUL 22 2017


NOTE: "FAIR" INDICATES FEW OR NO CLOUDS BELOW 12,000 FEET WITH NO
SIGNIFICANT WEATHER AND/OR OBSTRUCTIONS TO VISIBILITY. N/A MEANS
CURRENT SKY AND/OR WEATHER CONDITIONS ARE NOT AVAILABLE.

MNZ060>063-068>070-230200-
   Twin Cities Metro

CITY           SKY/WX    TMP DP  RH WIND       PRES   REMARKS
TWIN CITIES    PTCLDY    85  63  47 NW9       29.82R
ST PAUL        PTCLDY    84  63  49 N12       29.81R
CRYSTAL        PTCLDY    84  61  45 N9        29.81R
BLAINE         PTCLDY    84  63  48 NW8       29.82R
LAKEVILLE      CLEAR     81  64  57 NW6       29.83R
EDEN PRAIRIE   CLEAR     86  60  41 NW9       29.82R
SOUTH ST PAUL  CLEAR     85  59  41 NW6       29.81R
LAKE ELMO      FAIR      81  61  50 NW6       29.83R
$$
MNZ001>005-007-008-013>017-022>024-027-028-230200-
   Northwest Minnesota

CITY           SKY/WX    TMP DP  RH WIND       PRES   REMARKS
BEMIDJI        MOCLDY    73  55  53 W8        29.84S
HALLOCK        LGT RAIN  64  63  94 NW8       29.86R
ROSEAU         MOSUNNY   66  61  82 W7        29.84R
WARROAD        RAIN      66  63  88 NW17G25   29.83R
THIEF RVR FALL LGT RAIN  68  59  73 NW14      29.86S
CROOKSTON      CLOUDY    72  59  64 N13       29.87R
FOSSTON        CLOUDY    68  55  64 W8        29.86S
DETROIT LAKES  CLEAR     73  59  60 NW9       29.88S
MOORHEAD       SUNNY     77  57  50 NW8       29.86R
PARK RAPIDS    CLEAR     77  56  48 NW12      29.85F
MAHNOMEN       CLOUDY    72  56  58 NW9G16    29.86R
$$
MNZ006-009>011-018-025>026-230200-
   North Central Minnesota

CITY           SKY/WX    TMP DP  RH WIND       PRES   REMARKS
BAUDETTE       LGT RAIN  64  62  93 W7        29.81R FOG
FLAG ISLAND    CLOUDY    64  57  77 N16       29.79S
INTL FALLS     CLEAR     70  56  61 NW9       29.79R
WASKISH        MOCLDY    68  61  77 NW13G18   29.82R
BIG FORK       CLEAR     72  55  56 W3        29.81S
LONGVILLE      MOCLDY    73  54  49 W5        29.84S
GRAND RAPIDS   CLEAR     75  53  46 NW14      29.84R
CRANE LAKE     PTCLDY    73  59  60 CALM      29.79R
ORR            PTCLDY    72  54  53 CALM      29.77R
COOK           CLEAR     73  54  49 W12       29.80R
WALKER         CLOUDY    69  55  60 W8        29.85R
$$
MNZ012-019>021-037-230200-
   Northeast Minnesota

CITY           SKY/WX    TMP DP  RH WIND       PRES   REMARKS
DULUTH         PTCLDY    60  56  86 SE8       29.82R
ELY            PTCLDY    68  63  83 SE3       29.80R
HIBBING        CLEAR     74  53  48 W10       29.80R
EVELETH        PTCLDY    75  47  36 W7        29.81R
DULUTH HARBOR  CLOUDY    59  55  88 NE13      29.83R
TWO HARBORS    CLEAR     64  57  77 E7        29.80S
SILVER BAY     DRIZZLE   59  55  88 E5        29.80F
GRAND MARAIS     N/A     55  52  89 CALM      29.83R
G MARAIS ARPRT CLOUDY    59  54  82 NE6       29.86R
$$
MNZ029>031-032-039>041-046>048-054>057-064-230200-
   West Central Minnesota

CITY           SKY/WX    TMP DP  RH WIND       PRES   REMARKS
FERGUS FALLS   PTCLDY    75  63  64 NW5       29.84S
WHEATON        CLEAR     79  61  53 N5        29.86S
MORRIS         CLEAR     81  61  50 CALM      29.85S
ALEXANDRIA     CLEAR     77  59  53 NW5       29.88F
ELBOW LAKE     FAIR      76  63  62 N3        29.86F HAZE
WADENA         CLEAR     73  59  60 CALM      29.86S
GLENWOOD       CLEAR     79  61  53 NW3       29.88S
APPLETON       CLEAR     82  64  54 CALM      29.85S
BENSON         CLEAR     81  63  54 CALM      29.87S
ORTONVILLE     PTCLDY    82  64  54 CALM      29.86S
MADISON        CLEAR     84  63  48 CALM      29.86F
WILLMAR        FAIR      81  66  61 N5        29.88S
$$
MNZ033>034-036-042>043-049>051-058-059-230200-
   Central Minnesota

CITY           SKY/WX    TMP DP  RH WIND       PRES   REMARKS
ST CLOUD       CLEAR     80  64  58 NW7       29.85R
SAUK CENTRE    FAIR      78  54  42 NW9       29.87S
PAYNESVILLE    CLEAR     80  60  49 NW3       29.87S
AITKIN         CLEAR     75  54  46 W5        29.82S
PINE RIVER     CLEAR     75  54  46 NW8       29.87F
BRAINERD       CLEAR     77  49  37 NW9       29.84S
STAPLES        CLEAR     75  54  46 NW3       29.86S
LONG PRAIRIE   FAIR      77  57  50 W3        29.87S
LITTLE FALLS   CLEAR     79  52  38 NW5       29.86S
LITCHFIELD     CLEAR     82  63  51 N7        29.86R
BUFFALO        PTCLDY    83  53  34 W7        29.85R
MAPLE LAKE     CLEAR     82  61  49 NW6       29.86R
HUTCHINSON     CLOUDY    82  67  61 NW6       29.86S
$$
MNZ037-044-045-052-053-230200-
   East Central Minnesota

CITY           SKY/WX    TMP DP  RH WIND       PRES   REMARKS
PRINCETON      CLEAR     81  63  54 NW6       29.84R
MORA           CLEAR     75  61  60 NW8       29.85R
CAMBRIDGE      CLEAR     82  64  54 W7        29.82R
RUSH CITY      PTCLDY    78  67  67 CALM      29.82R HAZE
MOOSE LAKE     CLEAR     77  54  44 W5        29.80R
HINCKLEY       FAIR      79  63  57 W5        29.82R
CLOQUET        CLEAR     66  57  72 E3        29.82R
MCGREGOR       CLEAR     77  55  47 W5        29.82S
$$
MNZ071>073-080-081-089-090-097-098-230200-
   Southwest Minnesota

CITY           SKY/WX    TMP DP  RH WIND       PRES   REMARKS
MONTEVIDEO     CLEAR     82  63  51 CALM      29.86F
GRANITE FALLS  CLEAR     83  65  53 NW5       29.88S
CANBY          CLEAR     85  58  40 CALM      29.89S
MARSHALL       CLEAR     81  64  56 NW8       29.88R
REDWOOD FALLS  CLEAR     82  68  62 CALM      29.85S
OLIVIA         CLEAR     79  64  61 NW6       29.86S
PIPESTONE      CLEAR     84  61  45 N6        29.92S
WINDOM         CLEAR     82  70  65 CALM      29.88F
WORTHINGTON    CLEAR     80  70  71 W7        29.91S
JACKSON        CLEAR     79  68  69 CALM      29.89F
SLAYTON        PTCLDY    81  66  61 W7        29.92S
$$
MNZ065>067-074>077-082>085-091>093-230200-
   South Central Minnesota

CITY           SKY/WX    TMP DP  RH WIND       PRES   REMARKS
MANKATO        CLEAR     82  71  69 W6        29.85S
NEW ULM        CLEAR     82  70  65 NW5       29.85S
ST JAMES       CLEAR     81  72  74 W5        29.87S
FAIRMONT       CLEAR     81  71  71 NW8       29.87S
GLENCOE        CLEAR     82  71  67 NW7       29.84R
FARIBAULT      CLEAR     82  70  65 W5        29.84R
OWATONNA       LGT RAIN  81  72  74 W5        29.84S
WASECA         PTCLDY    79  70  73 NW6       29.86S
ALBERT LEA     CLOUDY    81  70  69 NW6       29.85R
$$
MNZ078>079-086>088-094>096-230200-
   Southeast Minnesota

CITY           SKY/WX    TMP DP  RH WIND       PRES   REMARKS
ROCHESTER      MOCLDY    80  70  71 N6        29.84S
RED WING       PTCLDY    79  70  73 CALM      29.79S
STANTON        CLEAR     82  69  64 W5        29.81S
DODGE CENTER   CLEAR     81  72  74 W6        29.85R
WINONA         CLEAR     81  70  69 SW3       29.79S
AUSTIN         PTCLDY    79  70  73 SW3       29.85R
PRESTON        PTCLDY    77  70  78 W6        29.84S
$$
ABBREVIATIONS USED IN REMARKS
   TC - TEMPERATURES IN CELSIUS
  WCI - WIND CHILL INDEX
   HX - HEAT INDEX
  VSB - VISIBILITY
$$




USA.gov is the U.S. government's official web portal to all federal, state and local government web resources and services.